Tracking 19574 objects as of 15-Feb-2019
HD Live streaming from Space Station
objects crossing your sky now

INTELSAT 502

Track INTELSAT 502 now!
INTELSAT 502 is classified as:


NORAD ID: 12089
Int'l Code: 1980-098A
Perigee: 36,123.3 km
Apogee: 36,246.2 km
Inclination: 14.7 °
Period: 1,456.1 minutes
Semi major axis: 42555 km
RCS: 13.5237 m2 (large)
Launch date: December 6, 1980
Source: International Telecommunications Satellite Organization (ITSO)
Launch site: AIR FORCE EASTERN TEST RANGE (AFETR)
aabbcc
Your satellite tracking list
Your tracking list is empty




NASA's NSSDC Master Catalog

Two Line Element Set (TLE):
1 12089U 80098A   19045.63612152 -.00000279 +00000-0 +00000-0 0  9999
2 12089 014.7013 348.3337 0014435 283.1415 254.4123 00.98892977107222
Source of the keplerian elements: AFSPC